Погода в Щучинске

Погода в Щучинске : погода сейчас, прогноз погоды и архив. Всё, что Вы хотите узнать о погоде в Щучинске!

Поиск расширенной информации на нашем сайте:

Другие новости

Новости СМИ2

Главная страница сайта

Новости сайта

03.07.2017

Напоминаем, что на нашем специализированном сайте Метеоцентр.Азия вы можете получить высокодетализированные автоматические прогнозы погоды по пунктам России, СНГ и мира в авиационном формате (включающие направление и скорость ветра, видимость, явления погоды, количество и форму облачности, нижнюю и верхнюю границу облачности).


Погода в Щучинске - сегодня

Время (UTC), дата Ветер
(°,м/с) 
Видим.   Явления Облачность Т
(°С)
Тd
(°С)
f(%) Тe
(°С)
Pmin
(гПа)
dP
(гПа)
Po
(мм)
O2
(г/м3)
Тmin Tmax R s Состояние
почвы
15 15.04.18 250 (З) 20000 м    6/6 600 м 
[Sc diur, vesp]
+4.2 -2.2 63 +3  1012  -0.8  723  287    +8.6       
18 15.04.18 230 (ЮЗ) н/о    ясно 
+2.1 -2.2 73 +1  1011.5  -0.8  723  289    +8.6       
21 15.04.18 230 (ЮЗ) н/о    10/0 средняя 
[Ac As]
+1.9 -2.1 75 +1  1009.5  -1.9  721  289           
00 16.04.18 210 (ЮЗ) 20000 м    8/6 600 м средняя 
[Sc|Ac As]
+0.8 -3.3 74 -1  1007.7  -1.9  720  289           
09 16.04.18 270 (З) 7{18}  20000 м    10/10 1000 м 
[Cu med, cong]
+8 -3.5 44 +6  1007.4  1.3  720  282           
12 16.04.18 310 (СЗ) 20000 м    10/10 1000 м кучево-дожд. 
[Cb cap]
+5.3 -2.8 56 +3  1009.6  1.6  722  285           
00 17.04.18 тихо ()   н/о  дымка  ясно 
-5.6 -7 90 -6  1017.3  1.2  726  299           
03 17.04.18 020 (С) 20000 м  {туман}  ясно 
-1.2 -8.4 58 -3  1017.6  727  295      0.0     
09 17.04.18 250 (З) 20000 м    10/10 1000 м 
[Cu Sc]
+3.2 -10.4 36 +2  1017.7  727  291           
12 17.04.18 280 (З) 20000 м    8/8 1000 м верхняя 
[Cu med, cong|Ci fib]
+3.3 -12.6 30 +1  1018.1  0.3  727  291           
15 17.04.18 020 (С) 20000 м    3/0 верхняя 
[Ci fib]
+0.9 -11.5 39 -1  1019.4  0.9  728  293    +4.8       
18 17.04.18 090 (В) н/о    ясно 
-3.6 -9.4 64 -3  1021.2  0.9  729  298    +4.8       
21 17.04.18 360 (С) н/о    ясно 
-3.4 -7.5 73 -6  1020.9  -0.2  729  298           
00 18.04.18 030 (СВ) 20000 м    ясно 
-4.1 -7.2 79 -6  1020.9  -0.2  728  299           
06 18.04.18 360 (С) 20000 м    6/3 1000 м верхняя 
[Cu med, cong|Ci sp]
+2.4 -12.6 32 +3  1021.3  730  292  -4.5         
09 18.04.18 150 (ЮВ) 20000 м    10/5 1000 м верхняя 
[Cu med, cong|Cs]
+4.2 -11.8 30 +5  1019.7  -1.2  729  290           
12 18.04.18 080 (В) 20000 м    10/10 300 м кучево-дожд. 
[Cb cap]
+3.7 -11.9 31 +3  1019.4  -0.3  728  291           
15 18.04.18 070 (В) 20000 м    10/10 600 м кучево-дожд. 
[Cb cap]
+1.2 -10.9 40 -2  1019.6  -0.3  728  293    +5.1       
18 18.04.18 080 (В) н/о    10/3 600 м верхняя 
[Sc|Cs]
-1.1 -9.5 53 -4  1020.4  0.4  729  296    +5.1       
21 18.04.18 050 (СВ) н/о    ясно 
-3.2 -9.1 64 -6  1020.4  -0.4  728  298           
00 19.04.18 тихо ()   20000 м    ясно 
-5.4 -10.2 69 -5  1021.6  0.8  729  301           
06 19.04.18 320 (СЗ) 20000 м    3/3 1500 м 
[Cu hum]
+2.4 -9.8 40 1020.9  0.1  729  292  -6.2         
09 19.04.18 260 (З) 20000 м    8/8 1000 м 
[Cu hum]
+5.1 -9.5 34 +3  1019.5  -0.9  729  289           
12 19.04.18 260 (З) 20000 м    8/6 1000 м верхняя 
[Sc|Ci fib]
+4.6 -8.2 39 +2  1019.4  -0.2  729  289           
15 19.04.18 200 (Ю) 20000 м    3/0 верхняя 
[Ci fib]
+0.1 -5.9 64 -2  1019.8  -0.4  728  294    +5.9       
Время (UTC), дата Ветер
(°,м/с) 
Видим.   Явления Облачность Т
(°С)
Тd
(°С)
f(%) Тe
(°С)
Pmin
(гПа)
dP
(гПа)
Po
(мм)
O2
(г/м3)
Тmin Tmax R s Состояние
почвы

Для получения пояснительной информации подведите курсор к названию столбца.

ПОГОДА в Щучинске - архив

Всё, что Вы хотите узнать о погоде в Щучинске - удобно и подробно!

Выберите нужную дату (начиная с 1 января 2015* года) и нажмите кнопку "Найти".
Будут отображены архивные сводки погоды по пункту Щучинск, начиная с указанной даты.


Отображать данные в формате CSV (для использования в таблицах Excel)


Внимание! Наш архив погоды предназначен исключительно для личного некоммерческого использования в познавательных целях. Если Вам необходимы официальные справки о состоянии погоды (для производственных, юридических, коммерческих и т.п. целей), обращайтесь в органы Росгидромета.

*Примечание: данная дата относится к архиву по метеостанциям СССР (Россия, СНГ, Балтия).
Архив по метеостанциям Зарубежной Европы и Азии (кроме Китая) хранится 10 дней, по другим регионам земного шара (Китай, Африка, Америка, Австралия, Океания) - 1 день.

Щучинск - район местоположения метеостанции


Название, широта, долгота, высота метеостанции:
Щучинск 52.9°ш. 70.2°д. 395 м над ур. моря [Казахстан]

Дополнительная информация

В oтличие oт бoльшинства пoгoдных сайтoв мы публикуем пoдрoбную метеoинфoрмацию в детальнoм прoфессиoнальнoм фoрмате.

Характеристики температуры и влажнoсти вoздуха измеряются на высoте 2 м в тени вдали oт зданий и деревьев.
Скoрoсть ветра измеряется на высoте 10 м (на урoвне рoста челoвека скoрoсть ветра ниже в 1.5-2 раза). Если метеoстанция нахoдится в гoрoде или в лесу, тo скoрoсть ветра занижена на 2-4 м/с пo сравнению с oткрытым местoм. Скoрoсть ветра над акватoриями крупных рек и oзёр, а также на вершинах хoлмoв на 2-5 м/с выше, чем в oбычных услoвиях.
Атмoсфернoе давление в разных тoчках местнoсти мoжет значительнo oтличаться oт давления на метеoстанции, в зависимoсти oт услoвий рельефа (при пoдъёме на 10 м давление пoнижается примернo на 1 мм рт.ст.).